Погода в Слубице

Польша     52°21′01″N   14°33′45″E
темп.,
°C
ветер,
м/с
пор.,
м/с
влажн.,
%
обл.,
%
осадки,
мм/ч
давл.,
гПа
погр.,
м
27 февраля, сб
сб2701:00+4зсз4119123 0.1 1032421
04:00+2зсз4109428 0.0 1032360
07:00+2сз489543 0.0 1033409
10:00+4сз4790100 0.0 1035522
13:00+5сз4683100 0.0 1037615
16:00+6зсз467899 0.0 1036668
19:00+3з389180 0.0 1037219
22:00+2з379518 0.0 1038194
28 февраля, вс
вс2801:00+1з379623 0.0 1038156
04:00+1зюз379632 0.0 1036181
07:00+1зюз389638 0.0 1036230
10:00+5з468531 0.0 1036347
13:00+9зсз467416 0.0 1035526
16:00+9сз36720 0.0 1034770
19:00+5сз23880 0.0 103529
22:00+4ссз22910 0.0 103522
1 марта, пн
пн101:00+3сз12920 0.0 103622
04:00+2ссз11920 0.0 103522
07:00+1з11920 0.0 103622
10:00+7з11750 0.0 1036246
13:00+11з11600 0.0 1036519
16:00+11зсз11600 0.0 1034545
19:00+6ю11770 0.0 103522
22:00+5юз018361 0.0 103522
2 марта, вт
вт201:00+4ю118650 0.0 103522
04:00+3ююз11870 0.0 103422
07:00+3ююв11880 0.0 103422
10:00+8ююв12680 0.0 1034257
13:00+12ююв23540 0.0 1033554
16:00+12ююв23590 0.0 1031634
19:00+7ююв22750 0.0 103122
22:00+6ю23810 0.0 103127
3 марта, ср
ср301:00+4ююз228711 0.0 103123
04:00+3юз229040 0.0 103023
07:00+3юз239240 0.0 102953
10:00+8юз34750 0.0 1029271
13:00+13зюз35610 0.0 1028573
16:00+13з35657 0.0 1026908
19:00+8з228622 0.0 102524
22:00+7з229190 0.0 102531